Location: Casilda
(33.0440°S, 61.1680°W)
Time: 22:43:57
(UTC-03:00)

ISS - Pass Details

Date: 22 December 2025
Orbit: 414 x 424 km, 51.6° (Epoch: 13 January)

Event Time Altitude Azimuth Distance (km) Brightness Sun altitude
Rises 21:51:19 0° 214° (SSW) 2,380 1.7 -17.3°
Reaches altitude 10° 21:53:48 10° 196° (SSW) 1,511 0.0 -17.6°
Maximum altitude 21:56:25 20° 146° (SE) 1,030 -1.7 -18.0°
Enters shadow 21:57:25 18° 121° (ESE) 1,112 -1.8 -18.2°
